When you browse on this site, cookies collect data to enhance your experience and personalize the content and advertising you see.
Visit our Privacy Policy to learn more. By continuing to use the site, you agree to this use of cookies and data.
  • In Hungary
  • List of Countries
  • For 7 days
  • Water Temperature
  • Weather Map
  • News
  • Weather Widgets
  • user-avatar
    Login

    Hourly Weather Novaya Rakityanka

    Today, 16 October, Wednesday

    Time Temperature Precipitation Wind Pressure Humidity
    00:00 +9°C° 0 mm 7 mps 729 mmHg 85%
    01:00 +9°C° 0 mm 7 mps 729 mmHg 83%
    02:00 +7°C° 0 mm 6 mps 729 mmHg 83%
    03:00 +5°C° 0 mm 6 mps 730 mmHg 84%
    04:00 +4°C° 0 mm 6 mps 730 mmHg 84%
    05:00 +3°C° 0 mm 5 mps 731 mmHg 85%
    06:00 +3°C° 0 mm 5 mps 731 mmHg 86%
    07:00 +4°C° 0 mm 4 mps 732 mmHg 86%
    08:00 +3°C° 0 mm 5 mps 732 mmHg 80%
    09:00 +5°C° 0 mm 5 mps 733 mmHg 74%
    10:00 +5°C° 0 mm 6 mps 734 mmHg 68%
    11:00 +5°C° 0 mm 6 mps 734 mmHg 64%
    12:00 +5°C° 0 mm 6 mps 734 mmHg 61%
    13:00 +6°C° 0 mm 7 mps 735 mmHg 57%
    14:00 +5°C° 0 mm 7 mps 735 mmHg 59%
    15:00 +4°C° 0 mm 7 mps 736 mmHg 61%
    16:00 +4°C° 0 mm 6 mps 736 mmHg 64%
    17:00 +3°C° 0 mm 6 mps 737 mmHg 67%
    18:00 +2°C° 0 mm 6 mps 737 mmHg 70%
    19:00 +1°C° 0 mm 5 mps 738 mmHg 73%
    20:00 +1°C° 0 mm 5 mps 738 mmHg 75%
    21:00 0°C° 0 mm 4 mps 739 mmHg 77%
    22:00 0°C° 0 mm 4 mps 740 mmHg 79%
    23:00 0°C° 0 mm 3 mps 740 mmHg 81%

    Tomorrow, 17 October, Thursday

    Time Temperature Precipitation Wind Pressure Humidity
    00:00 0°C° 0 mm 3 mps 740 mmHg 82%
    01:00 -1°C° 0 mm 3 mps 740 mmHg 83%
    02:00 -1°C° 0 mm 2 mps 741 mmHg 83%
    03:00 -1°C° 0 mm 2 mps 741 mmHg 82%
    04:00 -1°C° 0 mm 2 mps 742 mmHg 82%
    05:00 -2°C° 0 mm 2 mps 742 mmHg 83%
    06:00 -2°C° 0 mm 2 mps 742 mmHg 84%
    07:00 0°C° 0 mm 1 mps 742 mmHg 85%
    08:00 -1°C° 0 mm 2 mps 742 mmHg 78%
    09:00 +1°C° 0 mm 2 mps 743 mmHg 71%
    10:00 +1°C° 0 mm 3 mps 743 mmHg 64%
    11:00 +2°C° 0 mm 3 mps 743 mmHg 62%
    12:00 +3°C° 0 mm 4 mps 743 mmHg 59%
    13:00 +4°C° 0 mm 4 mps 743 mmHg 57%
    14:00 +4°C° 0 mm 4 mps 743 mmHg 58%
    15:00 +4°C° 0 mm 4 mps 742 mmHg 59%
    16:00 +4°C° 0 mm 4 mps 742 mmHg 61%
    17:00 +4°C° 0 mm 3 mps 742 mmHg 63%
    18:00 +3°C° 0 mm 3 mps 742 mmHg 66%
    19:00 +3°C° 0 mm 3 mps 742 mmHg 69%
    20:00 +2°C° 0 mm 3 mps 742 mmHg 69%
    21:00 +2°C° 0 mm 3 mps 742 mmHg 70%
    22:00 +2°C° 0 mm 3 mps 742 mmHg 71%
    23:00 +2°C° 0.2 mm 3 mps 741 mmHg 70%

    Day after tomorrow, 18 October, Friday

    Time Temperature Precipitation Wind Pressure Humidity
    00:00 +3°C° 0.2 mm 4 mps 741 mmHg 70%
    01:00 +3°C° 0.2 mm 4 mps 741 mmHg 70%
    02:00 +2°C° 0 mm 5 mps 740 mmHg 67%
    03:00 +2°C° 0 mm 5 mps 740 mmHg 65%
    04:00 +2°C° 0 mm 5 mps 740 mmHg 62%
    05:00 +2°C° 0 mm 5 mps 739 mmHg 63%
    06:00 +2°C° 0 mm 5 mps 739 mmHg 63%
    07:00 +1°C° 0 mm 4 mps 739 mmHg 64%
    08:00 +2°C° 0 mm 5 mps 739 mmHg 59%
    09:00 +5°C° 0 mm 5 mps 738 mmHg 54%
    10:00 +5°C° 0 mm 6 mps 738 mmHg 49%
    11:00 +7°C° 0 mm 6 mps 738 mmHg 46%
    12:00 +8°C° 0 mm 7 mps 737 mmHg 42%
    13:00 +9°C° 0 mm 7 mps 737 mmHg 39%
    14:00 +9°C° 0 mm 6 mps 737 mmHg 40%
    15:00 +9°C° 0 mm 6 mps 736 mmHg 41%
    16:00 +9°C° 0 mm 5 mps 736 mmHg 42%
    17:00 +9°C° 0 mm 5 mps 735 mmHg 47%
    18:00 +8°C° 0 mm 4 mps 735 mmHg 52%
    19:00 +7°C° 0 mm 4 mps 735 mmHg 57%
    20:00 +7°C° 0 mm 4 mps 734 mmHg 63%
    21:00 +6°C° 0 mm 4 mps 734 mmHg 69%
    22:00 +7°C° 0 mm 3 mps 734 mmHg 75%
    23:00 +7°C° 0 mm 3 mps 733 mmHg 79%

    19 October, Saturday

    Time Temperature Precipitation Wind Pressure Humidity
    00:00 +5°C° 0 mm 3 mps 733 mmHg 83%
    01:00 +5°C° 0 mm 3 mps 733 mmHg 87%
    02:00 +6°C° 0 mm 2 mps 733 mmHg 86%
    03:00 +6°C° 0 mm 2 mps 733 mmHg 86%
    04:00 +6°C° 0 mm 2 mps 733 mmHg 85%
    05:00 +5°C° 0 mm 2 mps 733 mmHg 83%
    06:00 +6°C° 0 mm 1 mps 733 mmHg 82%
    07:00 +6°C° 0 mm 1 mps 733 mmHg 81%
    08:00 +6°C° 0 mm 2 mps 734 mmHg 78%
    09:00 +6°C° 0 mm 2 mps 734 mmHg 76%
    10:00 +7°C° 0 mm 3 mps 735 mmHg 73%
    11:00 +6°C° 0 mm 4 mps 735 mmHg 76%
    12:00 +6°C° 0 mm 5 mps 735 mmHg 78%
    13:00 +6°C° 0 mm 5 mps 736 mmHg 81%
    14:00 +4°C° 0 mm 6 mps 736 mmHg 81%
    15:00 +4°C° 0 mm 7 mps 737 mmHg 82%
    16:00 +3°C° 0 mm 7 mps 737 mmHg 82%
    17:00 +3°C° 0 mm 7 mps 738 mmHg 82%
    18:00 +1°C° 0 mm 8 mps 738 mmHg 83%
    19:00 +1°C° 0 mm 8 mps 739 mmHg 84%
    20:00 +1°C° 0 mm 8 mps 739 mmHg 81%
    21:00 0°C° 0 mm 8 mps 740 mmHg 79%
    22:00 0°C° 0 mm 8 mps 740 mmHg 76%
    23:00 -1°C° 0 mm 8 mps 740 mmHg 77%

    20 October, Sunday

    Time Temperature Precipitation Wind Pressure Humidity
    00:00 -2°C° 0 mm 8 mps 741 mmHg 77%
    01:00 -2°C° 0 mm 8 mps 741 mmHg 77%
    02:00 -3°C° 0 mm 7 mps 741 mmHg 78%
    03:00 -3°C° 0 mm 7 mps 742 mmHg 78%
    04:00 -3°C° 0 mm 7 mps 742 mmHg 79%
    05:00 -4°C° 0 mm 7 mps 742 mmHg 78%
    06:00 -4°C° 0 mm 7 mps 743 mmHg 77%
    07:00 -4°C° 0 mm 7 mps 743 mmHg 75%
    08:00 -3°C° 0 mm 7 mps 743 mmHg 72%
    09:00 -3°C° 0 mm 6 mps 743 mmHg 69%
    10:00 -2°C° 0 mm 6 mps 743 mmHg 66%
    11:00 -1°C° 0 mm 6 mps 743 mmHg 63%
    12:00 +1°C° 0 mm 6 mps 743 mmHg 61%
    13:00 +1°C° 0 mm 5 mps 743 mmHg 58%
    14:00 +2°C° 0 mm 5 mps 743 mmHg 58%
    15:00 +3°C° 0 mm 4 mps 743 mmHg 57%
    16:00 +3°C° 0 mm 4 mps 743 mmHg 56%
    17:00 +1°C° 0 mm 4 mps 743 mmHg 61%
    18:00 +1°C° 0 mm 3 mps 743 mmHg 65%
    19:00 0°C° 0 mm 3 mps 743 mmHg 69%
    20:00 0°C° 0 mm 3 mps 743 mmHg 70%
    21:00 -1°C° 0 mm 2 mps 743 mmHg 72%
    22:00 -1°C° 0 mm 2 mps 743 mmHg 73%
    23:00 -1°C° 0 mm 2 mps 743 mmHg 73%

    21 October, Monday

    Time Temperature Precipitation Wind Pressure Humidity
    00:00 +1°C° 0 mm 1 mps 743 mmHg 73%
    01:00 0°C° 0 mm 1 mps 743 mmHg 74%
    02:00 0°C° 0 mm 1 mps 743 mmHg 73%
    03:00 0°C° 0 mm 1 mps 743 mmHg 73%
    04:00 0°C° 0 mm 1 mps 743 mmHg 73%
    05:00 0°C° 0 mm 1 mps 743 mmHg 72%
    06:00 +1°C° 0 mm 1 mps 743 mmHg 71%
    07:00 +1°C° 0 mm 1 mps 742 mmHg 70%
    08:00 +2°C° 0 mm 1 mps 742 mmHg 65%
    09:00 +3°C° 0 mm 1 mps 742 mmHg 61%
    10:00 +5°C° 0 mm 1 mps 742 mmHg 56%
    11:00 +5°C° 0 mm 2 mps 742 mmHg 54%
    12:00 +6°C° 0 mm 2 mps 742 mmHg 53%
    13:00 +7°C° 0 mm 3 mps 742 mmHg 52%
    14:00 +7°C° 0 mm 3 mps 742 mmHg 54%
    15:00 +7°C° 0 mm 3 mps 742 mmHg 56%
    16:00 +7°C° 0 mm 3 mps 741 mmHg 58%
    17:00 +5°C° 0 mm 3 mps 741 mmHg 61%
    18:00 +6°C° 0 mm 2 mps 741 mmHg 63%
    19:00 +6°C° 0 mm 2 mps 741 mmHg 66%
    20:00 +6°C° 0 mm 2 mps 741 mmHg 68%
    21:00 +6°C° 0 mm 2 mps 741 mmHg 71%
    22:00 +5°C° 0 mm 2 mps 741 mmHg 73%
    23:00 +5°C° 0 mm 2 mps 741 mmHg 76%
    Show more